Time,TemperatureF,DewpointF,PressureIn,WindDirection,WindDirectionDegrees,WindSpeedMPH,WindSpeedGustMPH,Humidity,HourlyPrecipIn,Conditions,Clouds,dailyrainin,SoftwareType,DateUTC
2013-09-08 00:00:00,82.4,77.4,29.93,SE,130,2.9,9.7,85,0.00,CLR,,1.27,WeatherDisplay:10.37,2013-09-08 05:00:00,
2013-09-08 00:05:00,82.4,77.4,29.93,SSE,165,7.2,10.4,85,0.00,RA,,0.00,WeatherDisplay:10.37,2013-09-08 05:05:00,
2013-09-08 00:10:00,82.3,77.0,29.93,SE,130,7.8,10.4,84,0.00,RA,,0.00,WeatherDisplay:10.37,2013-09-08 05:10:00,
2013-09-08 00:15:00,82.4,77.1,29.93,SE,131,5.8,10.4,84,0.00,RA,,0.00,WeatherDisplay:10.37,2013-09-08 05:15:00,
2013-09-08 00:20:00,82.4,76.7,29.93,SSE,168,6.9,9.2,83,0.00,RA,,0.00,WeatherDisplay:10.37,2013-09-08 05:20:00,
2013-09-08 00:25:00,82.5,76.8,29.93,SSE,164,2.7,9.2,83,0.00,CLR,,0.00,WeatherDisplay:10.37,2013-09-08 05:25:00,
2013-09-08 00:30:00,82.5,76.4,29.93,SSE,150,4.9,10.6,82,0.00,CLR,,0.00,WeatherDisplay:10.37,2013-09-08 05:30:00,
2013-09-08 00:35:00,82.4,76.3,29.93,SE,145,5.1,11.5,82,0.00,CLR,,0.00,WeatherDisplay:10.37,2013-09-08 05:35:00,
2013-09-08 00:40:00,82.4,76.3,29.92,ESE,112,6.3,11.5,82,0.00,CLR,,0.00,WeatherDisplay:10.37,2013-09-08 05:40:00,
2013-09-08 00:45:00,82.4,76.3,29.92,SSE,162,6.4,12.7,82,0.00,CLR,,0.00,WeatherDisplay:10.37,2013-09-08 05:45:00,
2013-09-08 00:50:00,82.5,76.8,29.92,South,175,3.8,5.8,83,0.00,CLR,,0.00,WeatherDisplay:10.37,2013-09-08 05:50:00,
2013-09-08 00:55:00,82.4,76.7,29.92,South,188,3.0,6.9,83,0.00,CLR,,0.00,WeatherDisplay:10.37,2013-09-08 05:55:00,
2013-09-08 01:00:00,82.5,76.8,29.92,SE,145,6.0,8.1,83,0.00,CLR,,0.00,WeatherDisplay:10.37,2013-09-08 06:00:00,
2013-09-08 01:05:00,82.5,76.8,29.91,SE,126,4.3,8.1,83,0.00,CLR,,0.00,WeatherDisplay:10.37,2013-09-08 06:05:00,
2013-09-08 01:10:00,82.4,76.7,29.91,SE,138,5.0,8.1,83,0.00,CLR,,0.00,WeatherDisplay:10.37,2013-09-08 06:10:00,
2013-09-08 01:15:00,82.3,76.6,29.91,SSE,158,4.6,6.9,83,0.00,CLR,,0.00,WeatherDisplay:10.37,2013-09-08 06:15:00,
2013-09-08 01:20:00,82.4,76.7,29.91,SSE,148,6.0,10.4,83,0.00,CLR,,0.00,WeatherDisplay:10.37,2013-09-08 06:20:00,
2013-09-08 01:25:00,82.3,76.3,29.91,SSE,160,3.9,8.1,82,0.00,CLR,,0.00,WeatherDisplay:10.37,2013-09-08 06:25:00,
2013-09-08 01:30:00,82.3,76.3,29.91,SSE,147,6.6,9.2,82,0.00,CLR,,0.00,WeatherDisplay:10.37,2013-09-08 06:30:00,
2013-09-08 01:35:00,82.2,76.2,29.91,SE,138,4.3,5.8,82,0.00,CLR,,0.00,WeatherDisplay:10.37,2013-09-08 06:35:00,
2013-09-08 01:40:00,82.3,75.9,29.91,SSE,148,6.4,9.2,81,0.00,CLR,,0.00,WeatherDisplay:10.37,2013-09-08 06:40:00,
2013-09-08 01:45:00,82.2,75.4,29.91,SSE,164,5.4,8.1,80,0.00,CLR,,0.00,WeatherDisplay:10.37,2013-09-08 06:45:00,
2013-09-08 01:50:00,82.3,75.5,29.91,SE,144,5.2,9.2,80,0.00,CLR,,0.00,WeatherDisplay:10.37,2013-09-08 06:50:00,
2013-09-08 01:55:00,82.4,75.2,29.91,ESE,107,2.9,5.8,79,0.00,CLR,,0.00,WeatherDisplay:10.37,2013-09-08 06:55:00,
2013-09-08 02:00:00,82.4,75.6,29.91,SE,127,4.2,5.8,80,0.00,CLR,,0.00,WeatherDisplay:10.37,2013-09-08 07:00:00,
2013-09-08 02:05:00,82.3,75.5,29.92,SE,131,4.6,8.1,80,0.00,CLR,,0.00,WeatherDisplay:10.37,2013-09-08 07:05:00,
2013-09-08 02:10:00,82.3,75.5,29.92,SSE,167,4.0,8.1,80,0.00,CLR,,0.00,WeatherDisplay:10.37,2013-09-08 07:10:00,
2013-09-08 02:15:00,82.3,75.9,29.92,SSE,158,4.1,9.8,81,0.00,CLR,,0.00,WeatherDisplay:10.37,2013-09-08 07:15:00,
2013-09-08 02:20:00,82.1,75.3,29.92,SSE,154,6.8,8.1,80,0.00,CLR,,0.00,WeatherDisplay:10.37,2013-09-08 07:20:00,
2013-09-08 02:25:00,82.3,75.9,29.91,ESE,121,5.6,7.3,81,0.00,CLR,,0.00,WeatherDisplay:10.37,2013-09-08 07:25:00,
2013-09-08 02:30:00,82.2,75.8,29.91,South,176,5.0,8.1,81,0.00,CLR,,0.00,WeatherDisplay:10.37,2013-09-08 07:30:00,
2013-09-08 02:35:00,82.2,75.8,29.91,South,188,6.5,9.2,81,0.00,CLR,,0.00,WeatherDisplay:10.37,2013-09-08 07:35:00,
2013-09-08 02:40:00,82.2,75.4,29.91,SSE,147,5.6,8.1,80,0.00,CLR,,0.00,WeatherDisplay:10.37,2013-09-08 07:40:00,
2013-09-08 02:45:00,82.2,75.4,29.91,SSE,155,7.2,9.2,80,0.00,CLR,,0.00,WeatherDisplay:10.37,2013-09-08 07:45:00,
2013-09-08 02:50:00,82.2,75.4,29.91,SSE,157,6.2,9.2,80,0.00,CLR,,0.00,WeatherDisplay:10.37,2013-09-08 07:50:00,
2013-09-08 02:55:00,82.1,75.7,29.91,SSE,158,3.7,6.5,81,0.00,CLR,,0.00,WeatherDisplay:10.37,2013-09-08 07:55:00,
2013-09-08 03:00:00,82.1,75.7,29.91,SSE,155,4.4,8.1,81,0.00,CLR,,0.00,WeatherDisplay:10.37,2013-09-08 08:00:00,
2013-09-08 03:05:00,82.1,75.7,29.91,SSE,162,5.1,7.0,81,0.00,CLR,,0.00,WeatherDisplay:10.37,2013-09-08 08:05:00,
2013-09-08 03:10:00,82.0,75.6,29.91,SSE,155,4.5,9.2,81,0.00,CLR,,0.00,WeatherDisplay:10.37,2013-09-08 08:10:00,
2013-09-08 03:15:00,82.0,75.2,29.91,SSE,155,5.2,9.2,80,0.00,CLR,,0.00,WeatherDisplay:10.37,2013-09-08 08:15:00,
2013-09-08 03:20:00,81.9,75.1,29.91,SSE,148,6.9,9.2,80,0.00,CLR,,0.00,WeatherDisplay:10.37,2013-09-08 08:20:00,
2013-09-08 03:25:00,81.9,75.1,29.91,South,174,5.0,6.9,80,0.00,CLR,,0.00,WeatherDisplay:10.37,2013-09-08 08:25:00,
2013-09-08 03:30:00,82.0,75.2,29.90,SSE,167,4.0,6.9,80,0.00,CLR,,0.00,WeatherDisplay:10.37,2013-09-08 08:30:00,
2013-09-08 03:35:00,82.0,74.8,29.90,SSW,208,5.0,6.9,79,0.00,CLR,,0.00,WeatherDisplay:10.37,2013-09-08 08:35:00,
2013-09-08 03:40:00,82.0,74.8,29.91,South,179,3.7,6.9,79,0.00,CLR,,0.00,WeatherDisplay:10.37,2013-09-08 08:40:00,
2013-09-08 03:45:00,82.0,74.8,29.91,South,185,6.4,8.1,79,0.00,CLR,,0.00,WeatherDisplay:10.37,2013-09-08 08:45:00,
2013-09-08 03:50:00,82.0,74.8,29.91,SSE,165,4.1,6.0,79,0.00,CLR,,0.00,WeatherDisplay:10.37,2013-09-08 08:50:00,
2013-09-08 03:55:00,81.9,74.7,29.91,South,184,5.9,8.1,79,0.00,CLR,,0.00,WeatherDisplay:10.37,2013-09-08 08:55:00,
2013-09-08 04:00:00,81.9,74.7,29.91,South,175,6.0,8.1,79,0.00,CLR,,0.00,WeatherDisplay:10.37,2013-09-08 09:00:00,
2013-09-08 04:05:00,82.0,74.8,29.91,South,185,5.5,8.1,79,0.00,CLR,,0.00,WeatherDisplay:10.37,2013-09-08 09:05:00,
2013-09-08 04:10:00,81.9,74.7,29.91,SSE,148,4.6,8.1,79,0.00,CLR,,0.00,WeatherDisplay:10.37,2013-09-08 09:10:00,
2013-09-08 04:15:00,82.0,75.2,29.91,South,182,3.9,6.9,80,0.00,CLR,,0.00,WeatherDisplay:10.37,2013-09-08 09:15:00,
2013-09-08 04:20:00,81.9,75.1,29.91,SSE,167,4.4,8.1,80,0.00,CLR,,0.00,WeatherDisplay:10.37,2013-09-08 09:20:00,
2013-09-08 04:25:00,81.9,75.1,29.90,South,179,5.0,8.0,80,0.00,CLR,,0.00,WeatherDisplay:10.37,2013-09-08 09:25:00,
2013-09-08 04:30:00,81.8,75.0,29.90,South,185,6.0,8.1,80,0.00,CLR,,0.00,WeatherDisplay:10.37,2013-09-08 09:30:00,
2013-09-08 04:35:00,81.7,74.9,29.90,South,171,5.1,8.1,80,0.00,CLR,,0.00,WeatherDisplay:10.37,2013-09-08 09:35:00,
2013-09-08 04:40:00,81.8,75.0,29.90,SSW,199,6.3,8.1,80,0.00,CLR,,0.00,WeatherDisplay:10.37,2013-09-08 09:40:00,
2013-09-08 04:45:00,81.8,75.0,29.90,South,191,4.8,6.9,80,0.00,CLR,,0.00,WeatherDisplay:10.37,2013-09-08 09:45:00,
2013-09-08 04:50:00,81.7,74.9,29.90,SSW,193,4.6,6.9,80,0.00,CLR,,0.00,WeatherDisplay:10.37,2013-09-08 09:50:00,
2013-09-08 04:55:00,81.8,75.0,29.90,SSW,198,4.2,5.1,80,0.00,CLR,,0.00,WeatherDisplay:10.37,2013-09-08 09:55:00,
2013-09-08 05:00:00,81.6,74.8,29.91,SSW,203,5.2,8.1,80,0.00,CLR,,0.00,WeatherDisplay:10.37,2013-09-08 10:00:00,
2013-09-08 05:05:00,81.7,74.9,29.90,SSE,158,5.3,7.5,80,0.00,CLR,,0.00,WeatherDisplay:10.37,2013-09-08 10:05:00,
2013-09-08 05:10:00,81.9,75.1,29.90,SSW,205,3.4,6.9,80,0.00,CLR,,0.00,WeatherDisplay:10.37,2013-09-08 10:10:00,
2013-09-08 05:15:00,81.8,75.0,29.90,SSW,210,4.0,5.8,80,0.00,CLR,,0.00,WeatherDisplay:10.37,2013-09-08 10:15:00,
2013-09-08 05:20:00,81.7,74.9,29.90,SSE,165,5.0,6.2,80,0.00,CLR,,0.00,WeatherDisplay:10.37,2013-09-08 10:20:00,
2013-09-08 05:25:00,81.7,74.9,29.91,South,176,4.2,5.8,80,0.00,CLR,,0.00,WeatherDisplay:10.37,2013-09-08 10:25:00,
2013-09-08 05:30:00,81.8,75.0,29.90,SW,219,3.8,6.9,80,0.00,CLR,,0.00,WeatherDisplay:10.37,2013-09-08 10:30:00,
2013-09-08 05:35:00,81.8,75.0,29.90,South,188,3.4,4.7,80,0.00,CLR,,0.00,WeatherDisplay:10.37,2013-09-08 10:35:00,
2013-09-08 05:40:00,81.7,74.9,29.90,South,175,2.0,4.6,80,0.00,CLR,,0.00,WeatherDisplay:10.37,2013-09-08 10:40:00,
2013-09-08 05:45:00,81.7,74.9,29.90,SSW,212,2.6,2.7,80,0.00,CLR,,0.00,WeatherDisplay:10.37,2013-09-08 10:45:00,
2013-09-08 05:50:00,81.7,74.9,29.91,SW,224,2.0,3.0,80,0.00,CLR,,0.00,WeatherDisplay:10.37,2013-09-08 10:50:00,
2013-09-08 05:55:00,81.5,74.7,29.91,South,181,2.0,4.2,80,0.00,CLR,,0.00,WeatherDisplay:10.37,2013-09-08 10:55:00,
2013-09-08 06:00:00,81.5,74.7,29.91,SSW,212,2.6,3.5,80,0.00,CLR,,0.00,WeatherDisplay:10.37,2013-09-08 11:00:00,
2013-09-08 06:05:00,81.5,75.1,29.91,SSW,205,0.0,0.0,81,0.00,CLR,,0.00,WeatherDisplay:10.37,2013-09-08 11:05:00,
2013-09-08 06:10:00,81.5,75.5,29.91,South,188,2.4,3.5,82,0.00,CLR,,0.00,WeatherDisplay:10.37,2013-09-08 11:10:00,
2013-09-08 06:15:00,81.4,75.4,29.91,South,189,2.2,3.5,82,0.00,CLR,,0.00,WeatherDisplay:10.37,2013-09-08 11:15:00,
2013-09-08 06:20:00,81.3,75.3,29.91,SE,127,0.4,1.2,82,0.00,CLR,,0.00,WeatherDisplay:10.37,2013-09-08 11:20:00,
2013-09-08 06:25:00,81.2,75.5,29.91,South,172,0.6,1.2,83,0.00,CLR,,0.00,WeatherDisplay:10.37,2013-09-08 11:25:00,
2013-09-08 06:30:00,80.9,75.6,29.91,South,172,0.0,0.0,84,0.00,CLR,,0.00,WeatherDisplay:10.37,2013-09-08 11:30:00,
2013-09-08 06:35:00,80.5,75.6,29.91,South,172,0.0,0.0,85,0.00,CLR,,0.00,WeatherDisplay:10.37,2013-09-08 11:35:00,
2013-09-08 06:40:00,80.4,75.5,29.91,South,172,0.0,0.0,85,0.00,CLR,,0.00,WeatherDisplay:10.37,2013-09-08 11:40:00,
2013-09-08 06:45:00,80.2,75.6,29.91,NNW,333,1.1,1.2,86,0.00,CLR,,0.00,WeatherDisplay:10.37,2013-09-08 11:45:00,
2013-09-08 06:50:00,80.0,75.4,29.91,NNW,333,0.0,0.0,86,0.00,CLR,,0.00,WeatherDisplay:10.37,2013-09-08 11:50:00,
2013-09-08 06:55:00,79.8,75.6,29.91,NNW,347,0.4,0.9,87,0.00,CLR,,0.00,WeatherDisplay:10.37,2013-09-08 11:55:00,
2013-09-08 07:00:00,79.4,75.5,29.92,NNW,347,0.0,0.0,88,0.00,CLR,,0.00,WeatherDisplay:10.37,2013-09-08 12:00:00,
2013-09-08 07:05:00,79.3,75.4,29.92,North,349,1.7,2.3,88,0.00,CLR,,0.00,WeatherDisplay:10.37,2013-09-08 12:05:00,
2013-09-08 07:10:00,79.3,75.8,29.92,NNW,342,0.5,1.2,89,0.00,CLR,,0.00,WeatherDisplay:10.37,2013-09-08 12:10:00,
2013-09-08 07:15:00,79.2,76.0,29.92,NNW,344,0.6,1.3,90,0.00,CLR,,0.00,WeatherDisplay:10.37,2013-09-08 12:15:00,
2013-09-08 07:20:00,79.1,75.9,29.93,NE,49,1.3,2.3,90,0.00,CLR,,0.00,WeatherDisplay:10.37,2013-09-08 12:20:00,
2013-09-08 07:25:00,79.0,76.1,29.93,North,11,1.5,2.1,91,0.00,CLR,,0.00,WeatherDisplay:10.37,2013-09-08 12:25:00,
2013-09-08 07:30:00,79.0,76.1,29.92,NNW,339,1.0,2.3,91,0.00,CLR,,0.00,WeatherDisplay:10.37,2013-09-08 12:30:00,
2013-09-08 07:35:00,78.9,76.0,29.92,East,90,1.2,3.5,91,0.00,CLR,,0.00,WeatherDisplay:10.37,2013-09-08 12:35:00,
2013-09-08 07:40:00,78.9,76.4,29.93,NE,54,9.0,14.0,92,0.00,CLR,,0.00,WeatherDisplay:10.37,2013-09-08 12:40:00,
2013-09-08 07:45:00,78.9,76.4,29.93,East,82,9.8,13.8,92,0.00,CLR,,0.00,WeatherDisplay:10.37,2013-09-08 12:45:00,
2013-09-08 07:50:00,78.8,76.3,29.93,ENE,58,6.4,10.4,92,0.00,CLR,,0.00,WeatherDisplay:10.37,2013-09-08 12:50:00,
2013-09-08 07:55:00,78.8,76.3,29.93,NE,40,5.5,10.5,92,0.00,CLR,,0.00,WeatherDisplay:10.37,2013-09-08 12:55:00,
2013-09-08 08:00:00,78.3,75.8,29.93,ENE,68,4.1,8.1,92,0.00,CLR,,0.00,WeatherDisplay:10.37,2013-09-08 13:00:00,
2013-09-08 08:05:00,78.2,75.7,29.93,NE,41,5.5,8.1,92,0.00,CLR,,0.00,WeatherDisplay:10.37,2013-09-08 13:05:00,
2013-09-08 08:10:00,78.3,75.8,29.93,North,360,2.1,6.9,92,0.00,CLR,,0.00,WeatherDisplay:10.37,2013-09-08 13:10:00,
2013-09-08 08:15:00,78.4,75.9,29.93,North,350,2.3,5.8,92,0.00,CLR,,0.00,WeatherDisplay:10.37,2013-09-08 13:15:00,
2013-09-08 08:20:00,78.2,75.4,29.93,NNW,328,3.8,5.8,91,0.00,CLR,,0.00,WeatherDisplay:10.37,2013-09-08 13:20:00,
2013-09-08 08:25:00,78.1,75.3,29.93,North,359,2.3,4.6,91,0.00,CLR,,0.00,WeatherDisplay:10.37,2013-09-08 13:25:00,
2013-09-08 08:30:00,78.2,75.4,29.93,East,92,0.0,0.0,91,0.00,CLR,,0.00,WeatherDisplay:10.37,2013-09-08 13:30:00,
2013-09-08 08:35:00,78.3,75.5,29.93,NNW,335,0.1,1.2,91,0.00,CLR,,0.00,WeatherDisplay:10.37,2013-09-08 13:35:00,
2013-09-08 08:40:00,78.2,75.0,29.93,NW,320,0.0,2.3,90,0.00,CLR,,0.00,WeatherDisplay:10.37,2013-09-08 13:40:00,
2013-09-08 08:45:00,78.2,75.0,29.93,NE,34,1.3,2.3,90,0.00,CLR,,0.00,WeatherDisplay:10.37,2013-09-08 13:45:00,
2013-09-08 08:50:00,78.3,75.1,29.93,ENE,64,0.4,2.3,90,0.00,CLR,,0.00,WeatherDisplay:10.37,2013-09-08 13:50:00,
2013-09-08 08:55:00,78.3,75.1,29.93,North,360,1.8,3.5,90,0.00,CLR,,0.00,WeatherDisplay:10.37,2013-09-08 13:55:00,
2013-09-08 09:00:00,78.5,75.3,29.93,North,4,1.1,3.5,90,0.00,CLR,,0.00,WeatherDisplay:10.37,2013-09-08 14:00:00,
2013-09-08 09:05:00,78.7,75.5,29.93,NNW,346,1.1,3.5,90,0.00,CLR,,0.00,WeatherDisplay:10.37,2013-09-08 14:05:00,
2013-09-08 09:10:00,78.9,76.0,29.93,NE,35,1.8,6.9,91,0.00,CLR,,0.00,WeatherDisplay:10.37,2013-09-08 14:10:00,
2013-09-08 09:15:00,79.0,76.1,29.94,East,80,2.6,4.6,91,0.00,CLR,,0.00,WeatherDisplay:10.37,2013-09-08 14:15:00,
2013-09-08 09:20:00,78.9,75.7,29.94,NNW,347,2.2,2.9,90,0.00,CLR,,0.00,WeatherDisplay:10.37,2013-09-08 14:20:00,
2013-09-08 09:25:00,78.9,75.7,29.94,NNE,31,2.0,3.5,90,0.00,CLR,,0.00,WeatherDisplay:10.37,2013-09-08 14:25:00,
2013-09-08 09:30:00,78.9,75.4,29.94,North,0,2.2,3.9,89,0.00,CLR,,0.00,WeatherDisplay:10.37,2013-09-08 14:30:00,
2013-09-08 09:35:00,78.9,75.0,29.95,North,352,2.8,4.6,88,0.00,CLR,,0.00,WeatherDisplay:10.37,2013-09-08 14:35:00,
2013-09-08 09:40:00,79.1,75.2,29.95,NNE,21,4.3,5.8,88,0.00,CLR,,0.00,WeatherDisplay:10.37,2013-09-08 14:40:00,
2013-09-08 09:45:00,79.1,74.9,29.95,NNW,347,3.5,4.7,87,0.00,CLR,,0.00,WeatherDisplay:10.37,2013-09-08 14:45:00,
2013-09-08 09:50:00,79.2,74.6,29.95,ENE,76,1.9,4.0,86,0.00,CLR,,0.00,WeatherDisplay:10.37,2013-09-08 14:50:00,
2013-09-08 09:55:00,79.3,74.7,29.95,East,79,1.3,5.8,86,0.00,CLR,,0.00,WeatherDisplay:10.37,2013-09-08 14:55:00,
2013-09-08 10:00:00,79.4,74.5,29.95,North,11,2.4,5.8,85,0.00,CLR,,0.00,WeatherDisplay:10.37,2013-09-08 15:00:00,
2013-09-08 10:05:00,79.5,74.2,29.95,ENE,62,0.0,0.0,84,0.00,CLR,,0.00,WeatherDisplay:10.37,2013-09-08 15:05:00,
2013-09-08 10:10:00,79.8,74.5,29.95,East,96,1.0,2.7,84,0.00,CLR,,0.00,WeatherDisplay:10.37,2013-09-08 15:10:00,
2013-09-08 10:15:00,80.0,75.4,29.95,ESE,103,2.9,4.6,86,0.13,RA,,0.15,WeatherDisplay:10.37,2013-09-08 15:15:00,
2013-09-08 10:20:00,79.9,76.0,29.95,ESE,106,1.8,3.9,88,0.19,RA,,0.19,WeatherDisplay:10.37,2013-09-08 15:20:00,
2013-09-08 10:25:00,79.7,76.5,29.96,ENE,66,11.9,17.4,90,0.23,RA,,0.26,WeatherDisplay:10.37,2013-09-08 15:25:00,
2013-09-08 10:30:00,79.2,76.3,29.96,ENE,75,9.4,13.8,91,0.50,RA,,0.56,WeatherDisplay:10.37,2013-09-08 15:30:00,
2013-09-08 10:35:00,77.9,75.1,29.96,North,359,3.7,6.9,91,0.70,RA,,0.71,WeatherDisplay:10.37,2013-09-08 15:35:00,
2013-09-08 10:40:00,76.8,74.3,29.95,NNW,340,1.6,3.5,92,0.77,RA,,0.77,WeatherDisplay:10.37,2013-09-08 15:40:00,
2013-09-08 10:45:00,76.0,74.1,29.95,NW,306,0.0,0.0,94,0.80,RA,,0.81,WeatherDisplay:10.37,2013-09-08 15:45:00,
2013-09-08 10:50:00,75.9,74.4,29.96,NW,306,0.0,0.0,95,0.81,RA,,0.81,WeatherDisplay:10.37,2013-09-08 15:50:00,
2013-09-08 10:55:00,75.9,74.7,29.95,NW,306,0.0,0.0,96,0.82,RA,,0.82,WeatherDisplay:10.37,2013-09-08 15:55:00,
2013-09-08 11:00:00,75.8,74.6,29.95,NW,320,0.8,1.4,96,0.82,RA,,0.83,WeatherDisplay:10.37,2013-09-08 16:00:00,
2013-09-08 11:05:00,75.9,74.7,29.96,NNW,343,0.5,2.3,96,0.83,RA,,0.83,WeatherDisplay:10.37,2013-09-08 16:05:00,
2013-09-08 11:10:00,76.2,75.0,29.96,North,4,2.9,4.6,96,0.83,RA,,0.83,WeatherDisplay:10.37,2013-09-08 16:10:00,
2013-09-08 11:15:00,76.4,75.2,29.96,East,97,3.1,3.9,96,0.70,RA,,0.83,WeatherDisplay:10.37,2013-09-08 16:15:00,
2013-09-08 11:20:00,77.1,75.9,29.96,East,80,3.1,6.9,96,0.64,RA,,0.83,WeatherDisplay:10.37,2013-09-08 16:20:00,
2013-09-08 11:25:00,77.7,76.5,29.97,East,100,4.4,7.8,96,0.60,CLR,,0.83,WeatherDisplay:10.37,2013-09-08 16:25:00,
2013-09-08 11:30:00,77.5,76.3,29.98,SSE,148,4.9,9.2,96,0.33,CLR,,0.83,WeatherDisplay:10.37,2013-09-08 16:30:00,
2013-09-08 11:35:00,77.8,76.6,29.98,East,93,10.1,17.0,96,0.15,RA,,0.86,WeatherDisplay:10.37,2013-09-08 16:35:00,
2013-09-08 11:40:00,77.1,75.9,29.99,SSE,160,2.4,8.1,96,0.19,RA,,0.96,WeatherDisplay:10.37,2013-09-08 16:40:00,
2013-09-08 11:45:00,76.5,75.3,29.99,East,93,3.5,6.9,96,0.18,RA,,1.00,WeatherDisplay:10.37,2013-09-08 16:45:00,
2013-09-08 11:50:00,76.3,75.1,29.99,East,89,2.4,3.5,96,0.47,RA,,1.33,WeatherDisplay:10.37,2013-09-08 16:50:00,
2013-09-08 11:55:00,76.0,74.8,29.99,East,90,0.0,0.0,96,0.56,RA,,1.38,WeatherDisplay:10.37,2013-09-08 16:55:00,
2013-09-08 12:00:00,75.8,74.9,29.99,East,95,1.5,4.8,97,0.57,RA,,1.39,WeatherDisplay:10.37,2013-09-08 17:00:00,
2013-09-08 12:05:00,75.9,75.0,29.99,ESE,102,2.5,4.6,97,0.57,RA,,1.41,WeatherDisplay:10.37,2013-09-08 17:05:00,
2013-09-08 12:10:00,75.8,74.9,29.97,ENE,66,1.9,3.9,97,0.59,RA,,1.43,WeatherDisplay:10.37,2013-09-08 17:10:00,
2013-09-08 12:15:00,75.9,75.0,29.97,East,93,4.1,6.9,97,0.61,RA,,1.44,WeatherDisplay:10.37,2013-09-08 17:15:00,
2013-09-08 12:20:00,75.9,75.0,29.97,East,100,4.2,5.8,97,0.62,RA,,1.45,WeatherDisplay:10.37,2013-09-08 17:20:00,
2013-09-08 12:25:00,76.2,75.6,29.97,ESE,116,3.6,5.8,98,0.62,RA,,1.45,WeatherDisplay:10.37,2013-09-08 17:25:00,
2013-09-08 12:30:00,76.1,75.5,29.96,ESE,107,4.3,6.9,98,0.62,RA,,1.45,WeatherDisplay:10.37,2013-09-08 17:30:00,
2013-09-08 12:35:00,76.1,75.2,29.96,ESE,106,3.1,4.9,97,0.60,RA,,1.45,WeatherDisplay:10.37,2013-09-08 17:35:00,
2013-09-08 12:40:00,75.9,75.0,29.95,East,85,2.9,4.6,97,0.49,,,1.45,WeatherDisplay:10.37,2013-09-08 17:40:00,
2013-09-08 12:46:00,76.0,75.4,29.95,East,88,4.6,5.6,98,0.48,RA,,1.46,WeatherDisplay:10.37,2013-09-08 17:46:00,
2013-09-08 12:51:00,76.3,75.7,29.94,East,85,4.1,7.3,98,0.14,RA,,1.47,WeatherDisplay:10.37,2013-09-08 17:51:00,
2013-09-08 12:56:00,76.6,76.0,29.94,East,92,4.5,9.2,98,0.09,RA,,1.47,WeatherDisplay:10.37,2013-09-08 17:56:00,
2013-09-08 13:01:00,76.4,75.8,29.94,ESE,112,4.6,5.9,98,0.08,RA,,1.47,WeatherDisplay:10.37,2013-09-08 18:01:00,
2013-09-08 13:06:00,76.4,75.8,29.93,ESE,106,4.0,4.6,98,0.06,RA,,1.47,WeatherDisplay:10.37,2013-09-08 18:06:00,
2013-09-08 13:12:00,76.3,75.7,29.93,East,97,2.4,3.5,98,0.05,RA,,1.48,WeatherDisplay:10.37,2013-09-08 18:12:00,
2013-09-08 13:17:00,76.4,75.8,29.93,East,88,3.0,4.6,98,0.04,RA,,1.48,WeatherDisplay:10.37,2013-09-08 18:17:00,
2013-09-08 13:22:00,76.3,75.7,29.93,ENE,65,1.5,3.5,98,0.03,RA,,1.48,WeatherDisplay:10.37,2013-09-08 18:22:00,
2013-09-08 13:27:00,76.4,75.5,29.92,East,79,0.5,3.5,97,0.03,RA,,1.48,WeatherDisplay:10.37,2013-09-08 18:27:00,
2013-09-08 13:32:00,76.7,75.8,29.93,East,79,0.0,0.0,97,0.03,CLR,,1.48,WeatherDisplay:10.37,2013-09-08 18:32:00,
2013-09-08 13:37:00,76.8,75.9,29.93,ENE,59,0.2,3.1,97,0.03,CLR,,1.48,WeatherDisplay:10.37,2013-09-08 18:37:00,
2013-09-08 13:42:00,76.9,76.0,29.93,East,90,1.2,3.5,97,0.02,CLR,,1.48,WeatherDisplay:10.37,2013-09-08 18:42:00,
2013-09-08 13:47:00,77.0,76.1,29.93,NNW,329,1.8,4.6,97,0.02,CLR,,1.48,WeatherDisplay:10.37,2013-09-08 18:47:00,
2013-09-08 13:52:00,77.3,76.4,29.93,North,353,1.6,2.3,97,0.01,CLR,,1.48,WeatherDisplay:10.37,2013-09-08 18:52:00,
2013-09-08 13:57:00,77.8,76.9,29.93,NE,34,1.9,3.5,97,0.01,CLR,,1.48,WeatherDisplay:10.37,2013-09-08 18:57:00,
2013-09-08 14:02:00,77.9,77.0,29.93,NNW,332,0.0,1.6,97,0.01,CLR,,1.48,WeatherDisplay:10.37,2013-09-08 19:02:00,
2013-09-08 14:07:00,78.2,77.3,29.92,NNW,330,1.7,4.6,97,0.01,CLR,,1.48,WeatherDisplay:10.37,2013-09-08 19:07:00,
2013-09-08 14:12:00,78.3,77.1,29.92,NNW,340,3.8,4.6,96,0.00,CLR,,1.48,WeatherDisplay:10.37,2013-09-08 19:12:00,
2013-09-08 14:17:00,78.3,77.1,29.92,North,3,2.4,4.6,96,0.00,CLR,,1.48,WeatherDisplay:10.37,2013-09-08 19:17:00,
2013-09-08 14:22:00,78.4,77.2,29.91,NNW,339,1.7,3.5,96,0.00,CLR,,1.48,WeatherDisplay:10.37,2013-09-08 19:22:00,
2013-09-08 14:27:00,78.5,77.3,29.91,West,281,0.8,2.3,96,0.00,CLR,,1.48,WeatherDisplay:10.37,2013-09-08 19:27:00,
2013-09-08 14:32:00,78.7,77.1,29.91,NNW,344,1.2,2.3,95,0.00,CLR,,1.48,WeatherDisplay:10.37,2013-09-08 19:32:00,
2013-09-08 14:37:00,78.8,77.2,29.91,NW,313,0.4,1.8,95,0.00,CLR,,1.48,WeatherDisplay:10.37,2013-09-08 19:37:00,
2013-09-08 14:42:00,79.2,77.3,29.91,North,359,0.4,2.3,94,0.00,CLR,,1.48,WeatherDisplay:10.37,2013-09-08 19:42:00,
2013-09-08 14:47:00,79.5,77.6,29.91,NE,41,0.9,2.3,94,0.00,CLR,,1.48,WeatherDisplay:10.37,2013-09-08 19:47:00,
2013-09-08 14:52:00,79.8,77.6,29.90,NNW,336,1.0,2.3,93,0.00,CLR,,1.48,WeatherDisplay:10.37,2013-09-08 19:52:00,
2013-09-08 14:57:00,80.1,77.9,29.90,North,360,0.1,2.4,93,0.00,CLR,,1.48,WeatherDisplay:10.37,2013-09-08 19:57:00,
2013-09-08 15:02:00,80.1,77.6,29.90,NE,49,1.0,3.5,92,0.00,CLR,,1.48,WeatherDisplay:10.37,2013-09-08 20:02:00,
2013-09-08 15:07:00,80.5,77.6,29.90,NE,38,1.4,3.5,91,0.00,CLR,,1.48,WeatherDisplay:10.37,2013-09-08 20:07:00,
2013-09-08 15:12:00,80.9,77.7,29.90,ENE,65,2.6,5.3,90,0.00,CLR,,1.48,WeatherDisplay:10.37,2013-09-08 20:12:00,
2013-09-08 15:17:00,81.3,77.7,29.90,NE,47,3.5,5.8,89,0.00,CLR,,1.48,WeatherDisplay:10.37,2013-09-08 20:17:00,
2013-09-08 15:22:00,81.6,77.4,29.89,NE,34,3.6,6.4,87,0.00,CLR,,1.48,WeatherDisplay:10.37,2013-09-08 20:22:00,
2013-09-08 15:27:00,82.2,77.6,29.89,NE,52,3.3,6.5,86,0.00,CLR,,1.48,WeatherDisplay:10.37,2013-09-08 20:27:00,
2013-09-08 15:32:00,82.4,77.4,29.89,ENE,78,3.6,5.8,85,0.00,CLR,,1.48,WeatherDisplay:10.37,2013-09-08 20:32:00,
2013-09-08 15:37:00,83.0,77.7,29.89,East,82,2.9,4.6,84,0.00,CLR,,1.48,WeatherDisplay:10.37,2013-09-08 20:37:00,
2013-09-08 15:42:00,83.5,77.8,29.89,East,86,3.2,5.8,83,0.00,CLR,,1.48,WeatherDisplay:10.37,2013-09-08 20:42:00,
2013-09-08 15:47:00,83.6,77.1,29.89,ENE,58,3.6,6.9,81,0.00,CLR,,1.48,WeatherDisplay:10.37,2013-09-08 20:47:00,
2013-09-08 15:52:00,84.0,77.5,29.90,ESE,123,1.3,5.8,81,0.00,CLR,,1.48,WeatherDisplay:10.37,2013-09-08 20:52:00,
2013-09-08 15:57:00,84.3,77.5,29.89,ESE,121,3.4,5.8,80,0.00,CLR,,1.48,WeatherDisplay:10.37,2013-09-08 20:57:00,
2013-09-08 16:02:00,84.5,77.3,29.89,ENE,73,4.3,8.5,79,0.00,CLR,,1.48,WeatherDisplay:10.37,2013-09-08 21:02:00,
2013-09-08 16:07:00,85.0,77.4,29.89,East,82,4.5,9.2,78,0.00,CLR,,1.48,WeatherDisplay:10.37,2013-09-08 21:07:00,
2013-09-08 16:12:00,85.5,77.5,29.89,East,85,5.4,8.1,77,0.00,CLR,,1.48,WeatherDisplay:10.37,2013-09-08 21:12:00,
2013-09-08 16:17:00,86.1,77.2,29.89,ENE,75,4.4,8.1,75,0.00,CLR,,1.48,WeatherDisplay:10.37,2013-09-08 21:17:00,
2013-09-08 16:22:00,86.5,77.2,29.89,East,88,4.1,5.8,74,0.00,CLR,,1.48,WeatherDisplay:10.37,2013-09-08 21:22:00,
2013-09-08 16:27:00,86.8,76.7,29.89,East,92,4.4,6.9,72,0.00,CLR,,1.48,WeatherDisplay:10.37,2013-09-08 21:27:00,
2013-09-08 16:32:00,87.2,76.6,29.89,ENE,78,4.1,6.5,71,0.00,CLR,,1.48,WeatherDisplay:10.37,2013-09-08 21:32:00,
2013-09-08 16:37:00,87.6,75.7,29.88,ESE,116,5.5,8.1,68,0.00,CLR,,1.48,WeatherDisplay:10.37,2013-09-08 21:37:00,
2013-09-08 16:42:00,87.9,76.0,29.88,ENE,71,7.2,12.1,68,0.00,CLR,,1.48,WeatherDisplay:10.37,2013-09-08 21:42:00,
2013-09-08 16:47:00,88.4,76.0,29.88,ESE,119,5.7,10.4,67,0.00,CLR,,1.48,WeatherDisplay:10.37,2013-09-08 21:47:00,
2013-09-08 16:52:00,88.4,75.6,29.88,ENE,71,7.5,12.7,66,0.00,CLR,,1.48,WeatherDisplay:10.37,2013-09-08 21:52:00,
2013-09-08 16:57:00,88.4,75.6,29.88,ESE,121,7.9,11.5,66,0.00,CLR,,1.48,WeatherDisplay:10.37,2013-09-08 21:57:00,
2013-09-08 17:02:00,88.4,75.6,29.88,East,82,7.0,10.4,66,0.00,CLR,,1.48,WeatherDisplay:10.37,2013-09-08 22:02:00,
2013-09-08 17:07:00,88.1,75.8,29.88,East,100,6.4,9.3,67,0.00,CLR,,1.48,WeatherDisplay:10.37,2013-09-08 22:07:00,
2013-09-08 17:12:00,87.7,75.4,29.88,ESE,106,7.0,9.8,67,0.00,CLR,,1.48,WeatherDisplay:10.37,2013-09-08 22:12:00,
2013-09-08 17:17:00,87.4,75.5,29.89,SE,127,5.9,11.5,68,0.00,CLR,,1.48,WeatherDisplay:10.37,2013-09-08 22:17:00,
2013-09-08 17:22:00,87.4,75.5,29.89,ESE,102,4.8,12.7,68,0.00,CLR,,1.48,WeatherDisplay:10.37,2013-09-08 22:22:00,
2013-09-08 17:27:00,87.4,76.0,29.89,SE,138,7.6,11.5,69,0.00,CLR,,1.48,WeatherDisplay:10.37,2013-09-08 22:27:00,
2013-09-08 17:32:00,87.3,75.4,29.89,East,93,6.0,13.1,68,0.00,CLR,,1.48,WeatherDisplay:10.37,2013-09-08 22:32:00,
2013-09-08 17:37:00,87.5,75.6,29.89,ESE,120,8.0,10.4,68,0.00,CLR,,1.48,WeatherDisplay:10.37,2013-09-08 22:37:00,
2013-09-08 17:42:00,87.0,75.2,29.88,East,99,6.1,9.2,68,0.00,CLR,,1.48,WeatherDisplay:10.37,2013-09-08 22:42:00,
2013-09-08 17:47:00,86.6,74.8,29.88,SE,127,8.2,11.5,68,0.00,CLR,,1.48,WeatherDisplay:10.37,2013-09-08 22:47:00,
2013-09-08 17:52:00,86.4,74.1,29.88,SSE,147,4.9,9.2,67,0.00,CLR,,1.48,WeatherDisplay:10.37,2013-09-08 22:52:00,
2013-09-08 17:57:00,86.1,74.3,29.88,SE,136,6.6,9.4,68,0.00,CLR,,1.48,WeatherDisplay:10.37,2013-09-08 22:57:00,
2013-09-08 18:02:00,85.9,74.1,29.89,SE,130,6.8,10.9,68,0.00,CLR,,1.48,WeatherDisplay:10.37,2013-09-08 23:02:00,
2013-09-08 18:07:00,85.2,73.4,29.89,East,82,11.8,19.6,68,0.00,,,1.48,WeatherDisplay:10.37,2013-09-08 23:07:00,
2013-09-08 18:12:00,84.4,72.7,29.89,SE,126,13.4,19.6,68,0.00,,,1.48,WeatherDisplay:10.37,2013-09-08 23:12:00,
2013-09-08 18:17:00,84.2,73.3,29.90,East,83,8.1,12.7,70,0.00,,,1.48,WeatherDisplay:10.37,2013-09-08 23:17:00,
2013-09-08 18:22:00,83.9,73.5,29.90,ESE,107,9.3,12.7,71,0.00,CLR,,1.48,WeatherDisplay:10.37,2013-09-08 23:22:00,
2013-09-08 18:27:00,83.7,73.7,29.90,ESE,117,9.7,11.5,72,0.00,CLR,,1.48,WeatherDisplay:10.37,2013-09-08 23:27:00,
2013-09-08 18:32:00,83.9,74.7,29.89,East,92,8.8,13.8,74,0.00,CLR,,1.48,WeatherDisplay:10.37,2013-09-08 23:32:00,
2013-09-08 18:37:00,84.0,75.2,29.89,ESE,121,7.1,13.8,75,0.00,CLR,,1.48,WeatherDisplay:10.37,2013-09-08 23:37:00,
2013-09-08 18:42:00,83.8,74.6,29.89,East,99,8.0,12.7,74,0.00,CLR,,1.48,WeatherDisplay:10.37,2013-09-08 23:42:00,
2013-09-08 18:47:00,83.4,73.8,29.89,ESE,123,4.7,9.2,73,0.00,CLR,,1.48,WeatherDisplay:10.37,2013-09-08 23:47:00,
2013-09-08 18:52:00,83.1,73.9,29.89,ESE,119,6.4,9.3,74,0.00,CLR,,1.48,WeatherDisplay:10.37,2013-09-08 23:52:00,
2013-09-08 18:57:00,83.0,74.6,29.88,ESE,109,9.0,11.8,76,0.00,CLR,,1.48,WeatherDisplay:10.37,2013-09-08 23:57:00,
2013-09-08 19:02:00,82.8,74.5,29.88,ESE,112,6.7,12.7,76,0.00,CLR,,1.48,WeatherDisplay:10.37,2013-09-09 00:02:00,
2013-09-08 19:07:00,82.4,74.8,29.88,East,99,9.8,15.0,78,0.00,CLR,,1.48,WeatherDisplay:10.37,2013-09-09 00:07:00,
2013-09-08 19:12:00,82.5,74.9,29.88,ESE,121,9.7,12.7,78,0.00,CLR,,1.48,WeatherDisplay:10.37,2013-09-09 00:12:00,
2013-09-08 19:17:00,82.2,75.4,29.88,ESE,109,9.5,12.9,80,0.00,CLR,,1.48,WeatherDisplay:10.37,2013-09-09 00:17:00,
2013-09-08 19:22:00,82.1,75.7,29.88,ESE,106,7.9,11.5,81,0.00,CLR,,1.48,WeatherDisplay:10.37,2013-09-09 00:22:00,
2013-09-08 19:27:00,81.9,75.5,29.88,ESE,107,8.1,12.7,81,0.00,CLR,,1.48,WeatherDisplay:10.37,2013-09-09 00:27:00,
2013-09-08 19:32:00,81.7,75.7,29.89,East,82,9.6,17.3,82,0.00,CLR,,1.48,WeatherDisplay:10.37,2013-09-09 00:32:00,
2013-09-08 19:37:00,81.6,75.6,29.89,ESE,120,10.0,13.8,82,0.00,CLR,,1.48,WeatherDisplay:10.37,2013-09-09 00:37:00,
2013-09-08 19:42:00,81.7,75.7,29.89,East,99,8.7,13.2,82,0.00,CLR,,1.48,WeatherDisplay:10.37,2013-09-09 00:42:00,
2013-09-08 19:47:00,81.7,75.7,29.89,ESE,116,8.1,13.8,82,0.00,CLR,,1.48,WeatherDisplay:10.37,2013-09-09 00:47:00,
2013-09-08 19:52:00,81.8,76.1,29.89,SE,138,9.3,13.8,83,0.00,CLR,,1.48,WeatherDisplay:10.37,2013-09-09 00:52:00,
2013-09-08 19:57:00,81.6,75.9,29.89,East,89,9.1,16.1,83,0.00,CLR,,1.48,WeatherDisplay:10.37,2013-09-09 00:57:00,
2013-09-08 20:02:00,81.5,75.8,29.89,ESE,109,10.4,13.8,83,0.00,CLR,,1.48,WeatherDisplay:10.37,2013-09-09 01:02:00,
2013-09-08 20:07:00,81.5,75.5,29.89,ESE,113,9.7,12.2,82,0.00,CLR,,1.48,WeatherDisplay:10.37,2013-09-09 01:07:00,
2013-09-08 20:12:00,81.4,75.0,29.89,SE,130,9.2,13.8,81,0.00,CLR,,1.48,WeatherDisplay:10.37,2013-09-09 01:12:00,
2013-09-08 20:17:00,81.5,75.1,29.89,ESE,104,13.7,17.3,81,0.00,CLR,,1.48,WeatherDisplay:10.37,2013-09-09 01:17:00,
2013-09-08 20:22:00,81.4,75.0,29.89,East,97,9.2,15.0,81,0.00,CLR,,1.48,WeatherDisplay:10.37,2013-09-09 01:22:00,
2013-09-08 20:27:00,81.5,75.1,29.89,ESE,119,9.3,15.0,81,0.00,CLR,,1.48,WeatherDisplay:10.37,2013-09-09 01:27:00,
2013-09-08 20:32:00,81.6,75.6,29.89,ESE,110,11.6,18.4,82,0.00,CLR,,1.48,WeatherDisplay:10.37,2013-09-09 01:32:00,
2013-09-08 20:37:00,81.7,75.7,29.89,ESE,109,11.0,15.0,82,0.00,CLR,,1.48,WeatherDisplay:10.37,2013-09-09 01:37:00,
2013-09-08 20:42:00,81.8,76.1,29.89,East,93,11.0,15.9,83,0.00,CLR,,1.48,WeatherDisplay:10.37,2013-09-09 01:42:00,
2013-09-08 20:47:00,81.9,76.6,29.89,ESE,106,9.3,15.0,84,0.00,CLR,,1.48,WeatherDisplay:10.37,2013-09-09 01:47:00,
2013-09-08 20:52:00,81.7,76.0,29.89,East,99,7.2,12.7,83,0.00,CLR,,1.48,WeatherDisplay:10.37,2013-09-09 01:52:00,
2013-09-08 20:57:00,81.7,76.4,29.89,SE,128,5.9,9.0,84,0.00,CLR,,1.48,WeatherDisplay:10.37,2013-09-09 01:57:00,
2013-09-08 21:02:00,81.5,75.8,29.89,SE,124,6.6,11.5,83,0.00,CLR,,1.48,WeatherDisplay:10.37,2013-09-09 02:02:00,
2013-09-08 21:07:00,81.5,75.8,29.89,East,90,8.2,11.5,83,0.00,CLR,,1.48,WeatherDisplay:10.37,2013-09-09 02:07:00,
2013-09-08 21:12:00,81.6,75.9,29.89,ESE,110,5.9,9.2,83,0.00,CLR,,1.48,WeatherDisplay:10.37,2013-09-09 02:12:00,
2013-09-08 21:17:00,81.5,75.8,29.89,East,97,7.5,10.8,83,0.00,CLR,,1.48,WeatherDisplay:10.37,2013-09-09 02:17:00,
2013-09-08 21:22:00,81.5,75.8,29.89,ESE,113,7.1,11.5,83,0.00,CLR,,1.48,WeatherDisplay:10.37,2013-09-09 02:22:00,
2013-09-08 21:27:00,81.5,75.8,29.89,East,93,6.1,9.2,83,0.00,CLR,,1.48,WeatherDisplay:10.37,2013-09-09 02:27:00,
2013-09-08 21:32:00,81.5,75.8,29.90,SE,134,5.3,8.1,83,0.00,CLR,,1.48,WeatherDisplay:10.37,2013-09-09 02:32:00,
2013-09-08 21:37:00,81.6,76.3,29.90,SE,127,4.9,11.5,84,0.00,CLR,,1.48,WeatherDisplay:10.37,2013-09-09 02:37:00,
2013-09-08 21:42:00,81.7,76.4,29.90,ESE,110,5.1,9.2,84,0.00,CLR,,1.48,WeatherDisplay:10.37,2013-09-09 02:42:00,
2013-09-08 21:47:00,81.5,75.5,29.90,East,99,6.8,12.7,82,0.00,CLR,,1.48,WeatherDisplay:10.37,2013-09-09 02:47:00,
2013-09-08 21:52:00,81.7,75.3,29.90,ESE,113,5.1,10.4,81,0.00,CLR,,1.48,WeatherDisplay:10.37,2013-09-09 02:52:00,
2013-09-08 21:57:00,81.9,75.5,29.91,East,95,8.5,11.5,81,0.00,CLR,,1.48,WeatherDisplay:10.37,2013-09-09 02:57:00,
2013-09-08 22:02:00,82.0,75.6,29.90,East,95,7.5,13.8,81,0.00,CLR,,1.48,WeatherDisplay:10.37,2013-09-09 03:02:00,
2013-09-08 22:07:00,82.1,75.7,29.90,East,99,9.8,14.9,81,0.00,CLR,,1.48,WeatherDisplay:10.37,2013-09-09 03:07:00,
2013-09-08 22:12:00,82.1,75.7,29.90,ESE,110,5.3,10.4,81,0.00,CLR,,1.48,WeatherDisplay:10.37,2013-09-09 03:12:00,
2013-09-08 22:17:00,82.0,75.6,29.90,ESE,112,9.7,12.7,81,0.00,CLR,,1.48,WeatherDisplay:10.37,2013-09-09 03:17:00,
2013-09-08 22:22:00,82.0,75.2,29.90,ESE,104,5.8,9.2,80,0.00,CLR,,1.48,WeatherDisplay:10.37,2013-09-09 03:22:00,
2013-09-08 22:27:00,81.9,75.1,29.90,ESE,104,7.1,11.5,80,0.00,CLR,,1.48,WeatherDisplay:10.37,2013-09-09 03:27:00,
2013-09-08 22:32:00,81.8,74.6,29.90,East,99,6.8,12.7,79,0.00,CLR,,1.48,WeatherDisplay:10.37,2013-09-09 03:32:00,
2013-09-08 22:37:00,81.7,74.5,29.90,SE,124,5.8,9.2,79,0.00,CLR,,1.48,WeatherDisplay:10.37,2013-09-09 03:37:00,
2013-09-08 22:42:00,81.8,74.6,29.90,ESE,113,5.5,10.4,79,0.00,CLR,,1.48,WeatherDisplay:10.37,2013-09-09 03:42:00,
2013-09-08 22:47:00,81.9,75.1,29.90,ESE,109,5.9,9.2,80,0.00,CLR,,1.48,WeatherDisplay:10.37,2013-09-09 03:47:00,
2013-09-08 22:52:00,81.6,74.5,29.90,SE,145,3.6,7.0,79,0.00,CLR,,1.48,WeatherDisplay:10.37,2013-09-09 03:52:00,
2013-09-08 22:57:00,81.6,74.1,29.90,ESE,113,2.3,4.6,78,0.00,CLR,,1.48,WeatherDisplay:10.37,2013-09-09 03:57:00,
2013-09-08 23:01:00,81.6,74.5,29.90,SE,143,3.6,8.1,79,0.00,CLR,,1.48,WeatherDisplay:10.37,2013-09-09 04:01:00,
2013-09-08 23:02:00,81.6,74.5,29.90,SSE,157,4.5,6.9,79,0.00,CLR,,1.48,WeatherDisplay:10.37,2013-09-09 04:02:00,
2013-09-08 23:07:00,81.6,74.5,29.90,SE,144,3.0,6.9,79,0.00,CLR,,1.48,WeatherDisplay:10.37,2013-09-09 04:07:00,
2013-09-08 23:09:00,81.5,74.4,29.90,SE,127,4.5,7.3,79,0.00,CLR,,1.48,WeatherDisplay:10.37,2013-09-09 04:09:00,
2013-09-08 23:14:00,81.7,74.9,29.90,SSE,160,0.0,7.5,80,0.00,CLR,,1.48,WeatherDisplay:10.37,2013-09-09 04:14:00,
2013-09-08 23:15:00,81.7,74.9,29.90,SE,124,4.6,6.1,80,0.00,CLR,,1.48,WeatherDisplay:10.37,2013-09-09 04:15:00,
2013-09-08 23:20:00,81.4,74.6,29.89,SE,140,5.0,8.1,80,0.00,RA,,1.48,WeatherDisplay:10.37,2013-09-09 04:20:00,
2013-09-08 23:25:00,81.5,74.7,29.90,SSE,154,2.5,5.8,80,0.00,RA,,1.48,WeatherDisplay:10.37,2013-09-09 04:25:00,
2013-09-08 23:30:00,81.5,75.1,29.90,SE,137,3.5,6.4,81,0.00,RA,,1.48,WeatherDisplay:10.37,2013-09-09 04:30:00,
2013-09-08 23:35:00,81.3,74.9,29.90,East,99,4.2,6.9,81,0.00,RA,,1.48,WeatherDisplay:10.37,2013-09-09 04:35:00,
2013-09-08 23:40:00,81.3,74.5,29.90,SE,126,6.5,9.2,80,0.00,CLR,,1.48,WeatherDisplay:10.37,2013-09-09 04:40:00,
2013-09-08 23:45:00,81.3,74.5,29.90,SE,144,4.3,6.9,80,0.00,CLR,,1.48,WeatherDisplay:10.37,2013-09-09 04:45:00,
2013-09-08 23:50:00,81.4,74.6,29.89,ESE,123,6.5,8.5,80,0.00,CLR,,1.48,WeatherDisplay:10.37,2013-09-09 04:50:00,
2013-09-08 23:55:00,81.4,74.6,29.89,ENE,69,2.5,6.9,80,0.00,CLR,,1.48,WeatherDisplay:10.37,2013-09-09 04:55:00,